{"data":{"norad_id":59127,"intl_designator":"2024-043AF","name":"JACKAL X-1L-001","alt_names":[],"object_type":"PAYLOAD","status":"ACTIVE","operator":null,"country":"US","launch_date":"2024-03-04","launch_site_code":"AFWTR","launch_vehicle":null,"mission":null,"orbit_class":"UNKNOWN","rcs_meters":null,"size_class":null,"mass_kg":null,"dimensions":null,"purposes":[],"wikipedia_slug":null,"has_3d_model":false,"image_url":null,"decayed_at":null,"tle_current":{"epoch":"2026-05-25T03:09:14.910912Z","epoch_age_seconds":57055,"freshness":"FRESH","line1":"1 59127U 24043AF  26145.13142258  .00015070  00000+0  33522-3 0  9991","line2":"2 59127  97.5552 289.2272 0005710 303.8229  56.2474 15.43737357123998","mean_motion":15.43737357,"eccentricity":0.000571,"inclination_deg":97.5552,"raan_deg":289.2272,"arg_perigee_deg":303.8229,"mean_anomaly_deg":56.2474,"bstar":0.00033522,"rev_number":12399,"period_min":93.280116171989,"perigee_km":431.20027422467,"apogee_km":438.98098017493,"semimajor_km":6813.2276271998,"source":"CELESTRAK","updated_at":"2026-05-25T13:38:01.195351Z"}}}